NOAA 16 DEB, 41223

Orbit data source: Space-Track

NOAA 16 DEB, 41223 is space debris in SSO originally from a launch on Thu, 21 Sep 2000 UTC launched from the Air Force Western Test Range (AFWTR). Debris objects in space refer to the collection of defunct objects orbiting the Earth. Examples of debris include non-operational satellites, rocket bodies, and fragments generated from explosions, collisions, or faulty payload assembly.

Loading next visibility...
Identifier
41223, 2000-055EC
Orbit
SSO
Country
Flag of USUS
Related business
Manufacturer
Unknown
Mission
Spacecraft
Bus & Motor
Unknown
Mass
Unknown
Launch date (UTC)
2000-09-21 (26 years ago)
Launch vehicle
Unknown
Launch site
Air Force Western Test Range (AFWTR)
Object type
Payload
Rocket body
Debris
Shape & HBR
Unknown shape, 0.1 m
Radar Cross Section
Small (<0.1 m²)

Expand to show TLE details & history
Last TLE update: 1 day ago

TLE from 1 day ago
0 NOAA 16 DEB
1 41223U 00055EC  26119.21062328  .00001931  00000-0  10288-2 0  9990
2 41223  98.6578 118.2946 0033133  31.8152 328.5014 14.14231332533087
Epoch: 2026-04-29T05:03Z
TLE epoch observation values (Epoch: 2026-04-29T05:03:17.851Z)
Latitude
-0.00003°
Longitude
-174.70462°
Altitude
827.448 km
Speed
7.45 km/s
True Right ascension
07h 53m 10s
True Declination
0° 00' 00"
Sunlit
Object was in daylight at epoch
Visualization orbit readout
Latitude
Unknown
Longitude
Unknown
Altitude
Unknown
Speed
Unknown
Apparent Right ascension
Unknown
Apparent Declination
Unknown
Sunlit
N/A
Visualization observer readout
Local Sidereal Time
16:55:19
Azimuth
Unknown
Elevation
Unknown
Doppler factor
Unknown
Orbital elements
Apogee altitude
866.015 km
Perigee altitude
818.169 km
Semi-major axis
7,220.229 km
Eccentricity
0.00331
Inclination
98.6578°
RAAN
118.2946°
Arg. of periapsis
31.8152°
True anomaly
328.30233°
Mean anomaly
328.5014°
Eccentric anomaly
328.40193°
Mean motion
3.53767 °/min
Orbital period
101.76 mins
BSTAR
0.0010288
Loading maneuver chart data...
Computing Atmospheric mass density...
Loading historical data...
Loading historical data...
Loading historical data...
Loading historical data...
Loading historical data...
Loading historical data...
Loading historical data...

Documentation

Showing up to 5 results
|